Year,Month,Day,Hour,Minute,Value (Times are PST for temperature in C)
2012,01,17,01,11,3.20
2012,01,17,01,12,3.20
2012,01,17,01,13,3.20
2012,01,17,01,14,3.20
2012,01,17,01,15,3.20
2012,01,17,01,16,3.20
2012,01,17,01,17,3.20
2012,01,17,01,18,3.20
2012,01,17,01,19,3.20
2012,01,17,01,20,3.20
2012,01,17,01,21,3.20
2012,01,17,01,22,3.20
2012,01,17,01,23,3.20
2012,01,17,01,24,3.20
2012,01,17,01,25,3.20
2012,01,17,01,26,3.40
2012,01,17,01,27,3.40
2012,01,17,01,28,3.40
2012,01,17,01,29,3.40
2012,01,17,01,30,3.40
2012,01,17,01,31,3.40
2012,01,17,01,32,3.40
2012,01,17,01,33,3.40
2012,01,17,01,34,3.40
2012,01,17,01,35,3.40
2012,01,17,01,36,3.40
2012,01,17,01,37,3.40
2012,01,17,01,38,3.40
2012,01,17,01,39,3.40
2012,01,17,01,40,3.40
2012,01,17,01,41,3.40
2012,01,17,01,42,3.40
2012,01,17,01,43,3.40
2012,01,17,01,44,3.40
2012,01,17,01,45,3.40
2012,01,17,01,46,3.40
2012,01,17,01,47,3.40
2012,01,17,01,48,3.40
2012,01,17,01,49,3.40
2012,01,17,01,50,3.40
2012,01,17,01,51,3.40
2012,01,17,01,52,3.40
2012,01,17,01,53,3.40
2012,01,17,01,54,3.40
2012,01,17,01,55,3.40
2012,01,17,01,56,3.70
2012,01,17,01,57,3.70
2012,01,17,01,58,3.70
2012,01,17,01,59,3.70
2012,01,17,02,00,3.70
2012,01,17,02,01,3.70
2012,01,17,02,02,3.70
2012,01,17,02,03,3.70
2012,01,17,02,04,3.70
2012,01,17,02,05,3.70
2012,01,17,02,06,3.70
2012,01,17,02,07,3.70
2012,01,17,02,08,3.70
2012,01,17,02,09,3.70
2012,01,17,02,10,3.70
2012,01,17,02,11,3.10
2012,01,17,02,12,3.10
2012,01,17,02,13,3.10
2012,01,17,02,14,3.10
2012,01,17,02,15,3.10
2012,01,17,02,16,3.10
2012,01,17,02,17,3.10
2012,01,17,02,18,3.10
2012,01,17,02,19,3.10
2012,01,17,02,20,3.10
2012,01,17,02,21,3.10
2012,01,17,02,22,3.10
2012,01,17,02,23,3.10
2012,01,17,02,24,3.10
2012,01,17,02,25,3.10
2012,01,17,02,26,1.80
2012,01,17,02,27,1.80
2012,01,17,02,28,1.80
2012,01,17,02,29,1.80
2012,01,17,02,30,1.80
2012,01,17,02,31,1.80
2012,01,17,02,32,1.80
2012,01,17,02,33,1.80
2012,01,17,02,34,1.80
2012,01,17,02,35,1.80
2012,01,17,02,36,1.80
2012,01,17,02,37,1.80
2012,01,17,02,38,1.80
2012,01,17,02,39,1.80
2012,01,17,02,40,1.80
2012,01,17,02,41,1.40
2012,01,17,02,42,1.40
2012,01,17,02,43,1.40
2012,01,17,02,44,1.40
2012,01,17,02,45,1.40
2012,01,17,02,46,1.40
2012,01,17,02,47,1.40
2012,01,17,02,48,1.40
2012,01,17,02,49,1.40
2012,01,17,02,50,1.40
2012,01,17,02,51,1.40
2012,01,17,02,52,1.40
2012,01,17,02,53,1.40
2012,01,17,02,54,1.40
2012,01,17,02,55,1.40
2012,01,17,02,56,1.60
2012,01,17,02,57,1.60
2012,01,17,02,58,1.60
2012,01,17,02,59,1.60
2012,01,17,03,00,1.60
2012,01,17,03,01,1.60
2012,01,17,03,02,1.60
2012,01,17,03,03,1.60
2012,01,17,03,04,1.60
2012,01,17,03,05,1.60
2012,01,17,03,06,1.60
2012,01,17,03,07,1.60
2012,01,17,03,08,1.60
2012,01,17,03,09,1.60
2012,01,17,03,10,1.60
2012,01,17,03,11,1.80
2012,01,17,03,12,1.80
2012,01,17,03,13,1.80
2012,01,17,03,14,1.80
2012,01,17,03,15,1.80
2012,01,17,03,16,1.80
2012,01,17,03,17,1.80
2012,01,17,03,18,1.80
2012,01,17,03,19,1.80
2012,01,17,03,20,1.80
2012,01,17,03,21,1.80
2012,01,17,03,22,1.80
2012,01,17,03,23,1.80
2012,01,17,03,24,1.80
2012,01,17,03,25,1.80
2012,01,17,03,26,2.30
2012,01,17,03,27,2.30
2012,01,17,03,28,2.30
2012,01,17,03,29,2.30
2012,01,17,03,30,2.30
2012,01,17,03,31,2.30
2012,01,17,03,32,2.30
2012,01,17,03,33,2.30
2012,01,17,03,34,2.30
2012,01,17,03,35,2.30
2012,01,17,03,36,2.30
2012,01,17,03,37,2.30
2012,01,17,03,38,2.30
2012,01,17,03,39,2.30
2012,01,17,03,40,2.30
2012,01,17,03,41,2.30
2012,01,17,03,42,2.30
2012,01,17,03,43,2.30
2012,01,17,03,44,2.30
2012,01,17,03,45,2.30
2012,01,17,03,46,2.30
2012,01,17,03,47,2.30
2012,01,17,03,48,2.30
2012,01,17,03,49,2.30
2012,01,17,03,50,2.30
2012,01,17,03,51,2.30
2012,01,17,03,52,2.30
2012,01,17,03,53,2.30
2012,01,17,03,54,2.30
2012,01,17,03,55,2.30
2012,01,17,03,56,1.80
2012,01,17,03,57,1.80
2012,01,17,03,58,1.80
2012,01,17,03,59,1.80
2012,01,17,04,00,1.80
2012,01,17,04,01,1.80
2012,01,17,04,02,1.80
2012,01,17,04,03,1.80
2012,01,17,04,04,1.80
2012,01,17,04,05,1.80
2012,01,17,04,06,1.80
2012,01,17,04,07,1.80
2012,01,17,04,08,1.80
2012,01,17,04,09,1.80
2012,01,17,04,10,1.80
2012,01,17,04,11,1.60
2012,01,17,04,12,1.60
2012,01,17,04,13,1.60
2012,01,17,04,14,1.60
2012,01,17,04,15,1.60
2012,01,17,04,16,1.60
2012,01,17,04,17,1.60
2012,01,17,04,18,1.60
2012,01,17,04,19,1.60
2012,01,17,04,20,1.60
2012,01,17,04,21,1.60
2012,01,17,04,22,1.60
2012,01,17,04,23,1.60
2012,01,17,04,24,1.60
2012,01,17,04,25,1.60
2012,01,17,04,26,1.20
2012,01,17,04,27,1.20
2012,01,17,04,28,1.20
2012,01,17,04,29,1.20
2012,01,17,04,30,1.20
2012,01,17,04,31,1.20
2012,01,17,04,32,1.20
2012,01,17,04,33,1.20
2012,01,17,04,34,1.20
2012,01,17,04,35,1.20
2012,01,17,04,36,1.20
2012,01,17,04,37,1.20
2012,01,17,04,38,1.20
2012,01,17,04,39,1.20
2012,01,17,04,40,1.20
2012,01,17,04,41,1.20
2012,01,17,04,42,1.20
2012,01,17,04,43,1.20
2012,01,17,04,44,1.20
2012,01,17,04,45,1.20
2012,01,17,04,46,1.20
2012,01,17,04,47,1.20
2012,01,17,04,48,1.20
2012,01,17,04,49,1.20
2012,01,17,04,50,1.20
2012,01,17,04,51,1.20
2012,01,17,04,52,1.20
2012,01,17,04,53,1.20
2012,01,17,04,54,1.20
2012,01,17,04,55,1.20
2012,01,17,04,56,1.20
2012,01,17,04,57,1.20
2012,01,17,04,58,1.20
2012,01,17,04,59,1.20
2012,01,17,05,00,1.20
2012,01,17,05,01,1.20
2012,01,17,05,02,1.20
2012,01,17,05,03,1.20
2012,01,17,05,04,1.20
2012,01,17,05,05,1.20
2012,01,17,05,06,1.20
2012,01,17,05,07,1.20
2012,01,17,05,08,1.20
2012,01,17,05,09,1.20
2012,01,17,05,10,1.20
2012,01,17,05,11,1.20
2012,01,17,05,12,1.20
2012,01,17,05,13,1.20
2012,01,17,05,14,1.20
2012,01,17,05,15,1.20
2012,01,17,05,16,1.20
2012,01,17,05,17,1.20
2012,01,17,05,18,1.20
2012,01,17,05,19,1.20
2012,01,17,05,20,1.20
2012,01,17,05,21,1.20
2012,01,17,05,22,1.20
2012,01,17,05,23,1.20
2012,01,17,05,24,1.20
2012,01,17,05,25,1.20
2012,01,17,05,26,1.20
2012,01,17,05,27,1.20
2012,01,17,05,28,1.20
2012,01,17,05,29,1.20
2012,01,17,05,30,1.20
2012,01,17,05,31,1.20
2012,01,17,05,32,1.20
2012,01,17,05,33,1.20
2012,01,17,05,34,1.20
2012,01,17,05,35,1.20
2012,01,17,05,36,1.20
2012,01,17,05,37,1.20
2012,01,17,05,38,1.20
2012,01,17,05,39,1.20
2012,01,17,05,40,1.20
2012,01,17,05,41,1.20
2012,01,17,05,42,1.20
2012,01,17,05,43,1.20
2012,01,17,05,44,1.20
2012,01,17,05,45,1.20
2012,01,17,05,46,1.20
2012,01,17,05,47,1.20
2012,01,17,05,48,1.20
2012,01,17,05,49,1.20
2012,01,17,05,50,1.20
2012,01,17,05,51,1.20
2012,01,17,05,52,1.20
2012,01,17,05,53,1.20
2012,01,17,05,54,1.20
2012,01,17,05,55,1.20
2012,01,17,05,56,1.20
2012,01,17,05,57,1.20
2012,01,17,05,58,1.20
2012,01,17,05,59,1.20
2012,01,17,16,56,1.70
2012,01,17,16,57,1.70
2012,01,17,16,58,1.70
2012,01,17,16,59,1.70
2012,01,17,17,00,1.70
2012,01,17,17,01,1.70
2012,01,17,17,02,1.70
2012,01,17,17,03,1.70
2012,01,17,17,04,1.70
2012,01,17,17,05,1.70
2012,01,17,17,06,1.70
2012,01,17,17,07,1.70
2012,01,17,17,08,1.70
2012,01,17,17,09,1.70
2012,01,17,17,10,1.70
2012,01,17,17,11,1.40
2012,01,17,17,12,1.40
2012,01,17,17,13,1.40
2012,01,17,17,14,1.40
2012,01,17,17,15,1.40
2012,01,17,17,16,1.40
2012,01,17,17,17,1.40
2012,01,17,17,18,1.40
2012,01,17,17,19,1.40
2012,01,17,17,20,1.40
2012,01,17,17,21,1.40
2012,01,17,17,22,1.40
2012,01,17,17,23,1.40
2012,01,17,17,24,1.40
2012,01,17,17,25,1.40
2012,01,17,17,26,1.30
2012,01,17,17,27,1.30
2012,01,17,17,28,1.30
2012,01,17,17,29,1.30
2012,01,17,17,30,1.30
2012,01,17,17,31,1.30
2012,01,17,17,32,1.30
2012,01,17,17,33,1.30
2012,01,17,17,34,1.30
2012,01,17,17,35,1.30
2012,01,17,17,36,1.30
2012,01,17,17,37,1.30
2012,01,17,17,38,1.30
2012,01,17,17,39,1.30
2012,01,17,17,40,1.30
2012,01,17,17,41,1.20
2012,01,17,17,42,1.20
2012,01,17,17,43,1.20
2012,01,17,17,44,1.20
2012,01,17,17,45,1.20
2012,01,17,17,46,1.20
2012,01,17,17,47,1.20
2012,01,17,17,48,1.20
2012,01,17,17,49,1.20
2012,01,17,17,50,1.20
2012,01,17,17,51,1.20
2012,01,17,17,52,1.20
2012,01,17,17,53,1.20
2012,01,17,17,54,1.20
2012,01,17,17,55,1.20
2012,01,17,17,56,1.20
2012,01,17,17,57,1.20
2012,01,17,17,58,1.20
2012,01,17,17,59,1.20
2012,01,17,18,00,1.20
2012,01,17,18,01,1.20
2012,01,17,18,02,1.20
2012,01,17,18,03,1.20
2012,01,17,18,04,1.20
2012,01,17,18,05,1.20
2012,01,17,18,06,1.20
2012,01,17,18,07,1.20
2012,01,17,18,08,1.20
2012,01,17,18,09,1.20
2012,01,17,18,10,1.20
2012,01,17,18,11,1.20
2012,01,17,18,12,1.20
2012,01,17,18,13,1.20
2012,01,17,18,14,1.20
2012,01,17,18,15,1.20
2012,01,17,18,16,1.20
2012,01,17,18,17,1.20
2012,01,17,18,18,1.20
2012,01,17,18,19,1.20
2012,01,17,18,20,1.20
2012,01,17,18,21,1.20
2012,01,17,18,22,1.20
2012,01,17,18,23,1.20
2012,01,17,18,24,1.20
2012,01,17,18,25,1.20
2012,01,17,18,26,1.40
2012,01,17,18,27,1.40
2012,01,17,18,28,1.40
2012,01,17,18,29,1.40
2012,01,17,18,30,1.40
2012,01,17,18,31,1.40
2012,01,17,18,32,1.40
2012,01,17,18,33,1.40
2012,01,17,18,34,1.40
2012,01,17,18,35,1.40
2012,01,17,18,36,1.40
2012,01,17,18,37,1.40
2012,01,17,18,38,1.40
2012,01,17,18,39,1.40
2012,01,17,18,40,1.40
2012,01,17,18,41,1.60
2012,01,17,18,42,1.60
2012,01,17,18,43,1.60
2012,01,17,18,44,1.60
2012,01,17,18,45,1.60
2012,01,17,18,46,1.60
2012,01,17,18,47,1.60
2012,01,17,18,48,1.60
2012,01,17,18,49,1.60
2012,01,17,18,50,1.60
2012,01,17,18,51,1.60
2012,01,17,18,52,1.60
2012,01,17,18,53,1.60
2012,01,17,18,54,1.60
2012,01,17,18,55,1.60
2012,01,17,18,56,1.20
2012,01,17,18,57,1.20
2012,01,17,18,58,1.20
2012,01,17,18,59,1.20
2012,01,17,19,00,1.20
2012,01,17,19,01,1.20
2012,01,17,19,02,1.20
2012,01,17,19,03,1.20
2012,01,17,19,04,1.20
2012,01,17,19,05,1.20
2012,01,17,19,06,1.20
2012,01,17,19,07,1.20
2012,01,17,19,08,1.20
2012,01,17,19,09,1.20
2012,01,17,19,10,1.20
2012,01,17,19,11,0.30
2012,01,17,19,12,0.30
2012,01,17,19,13,0.30
2012,01,17,19,14,0.30
2012,01,17,19,15,0.30
2012,01,17,19,16,0.30
2012,01,17,19,17,0.30
2012,01,17,19,18,0.30
2012,01,17,19,19,0.30
2012,01,17,19,20,0.30
2012,01,17,19,21,0.30
2012,01,17,19,22,0.30
2012,01,17,19,23,0.30
2012,01,17,19,24,0.30
2012,01,17,19,25,0.30
2012,01,17,19,26,0.60
2012,01,17,19,27,0.60
2012,01,17,19,28,0.60
2012,01,17,19,29,0.60
2012,01,17,19,30,0.60
2012,01,17,19,31,0.60
2012,01,17,19,32,0.60
2012,01,17,19,33,0.60
2012,01,17,19,34,0.60
2012,01,17,19,35,0.60
2012,01,17,19,36,0.60
2012,01,17,19,37,0.60
2012,01,17,19,38,0.60
2012,01,17,19,39,0.60
2012,01,17,19,40,0.60
2012,01,17,19,41,0.20
2012,01,17,19,42,0.20
2012,01,17,19,43,0.20
2012,01,17,19,44,0.20
2012,01,17,19,45,0.20
2012,01,17,19,46,0.20
2012,01,17,19,47,0.20
2012,01,17,19,48,0.20
2012,01,17,19,49,0.20
2012,01,17,19,50,0.20
2012,01,17,19,51,0.20
2012,01,17,19,52,0.20
2012,01,17,19,53,0.20
2012,01,17,19,54,0.20
2012,01,17,19,55,0.20
2012,01,17,19,56,-0.10
2012,01,17,19,57,-0.10
2012,01,17,19,58,-0.10
2012,01,17,19,59,-0.10
2012,01,17,20,00,-0.10
2012,01,17,20,01,-0.10
2012,01,17,20,02,-0.10
2012,01,17,20,03,-0.10
2012,01,17,20,04,-0.10
2012,01,17,20,05,-0.10
2012,01,17,20,06,-0.10
2012,01,17,20,07,-0.10
2012,01,17,20,08,-0.10
2012,01,17,20,09,-0.10
2012,01,17,20,10,-0.10
2012,01,17,20,11,-0.30
2012,01,17,20,12,-0.30
2012,01,17,20,13,-0.30
2012,01,17,20,14,-0.30
2012,01,17,20,15,-0.30
2012,01,17,20,16,-0.30
2012,01,17,20,17,-0.30
2012,01,17,20,18,-0.30
2012,01,17,20,19,-0.30
2012,01,17,20,20,-0.30
2012,01,17,20,21,-0.30
2012,01,17,20,22,-0.30
2012,01,17,20,23,-0.30
2012,01,17,20,24,-0.30
2012,01,17,20,25,-0.30
2012,01,17,20,26,-0.40
2012,01,17,20,27,-0.40
2012,01,17,20,28,-0.40
2012,01,17,20,29,-0.40
2012,01,17,20,30,-0.40
2012,01,17,20,31,-0.40
2012,01,17,20,32,-0.40
2012,01,17,20,33,-0.40
2012,01,17,20,34,-0.40
2012,01,17,20,35,-0.40
2012,01,17,20,36,-0.40
2012,01,17,20,37,-0.40
2012,01,17,20,38,-0.40
2012,01,17,20,39,-0.40
2012,01,17,20,40,-0.40
2012,01,17,20,41,-0.20
2012,01,17,20,42,-0.20
2012,01,17,20,43,-0.20
2012,01,17,20,44,-0.20
2012,01,17,20,45,-0.20
2012,01,17,20,46,-0.20
2012,01,17,20,47,-0.20
2012,01,17,20,48,-0.20
2012,01,17,20,49,-0.20
2012,01,17,20,50,-0.20
2012,01,17,20,51,-0.20
2012,01,17,20,52,-0.20
2012,01,17,20,53,-0.20
2012,01,17,20,54,-0.20
2012,01,17,20,55,-0.20
2012,01,17,20,56,-0.20
2012,01,17,20,57,-0.20
2012,01,17,20,58,-0.20
2012,01,17,20,59,-0.20
2012,01,17,21,00,-0.20
2012,01,17,21,01,-0.20
2012,01,17,21,02,-0.20
2012,01,17,21,03,-0.20
2012,01,17,21,04,-0.20
2012,01,17,21,05,-0.20
2012,01,17,21,06,-0.20
2012,01,17,21,07,-0.20
2012,01,17,21,08,-0.20
2012,01,17,21,09,-0.20
2012,01,17,21,10,-0.20
2012,01,17,21,11,0.00
2012,01,17,21,12,0.00
2012,01,17,21,13,0.00
2012,01,17,21,14,0.00
2012,01,17,21,15,0.00
2012,01,17,21,16,0.00
2012,01,17,21,17,0.00
2012,01,17,21,18,0.00
2012,01,17,21,19,0.00
2012,01,17,21,20,0.00
2012,01,17,21,21,0.00
2012,01,17,21,22,0.00
2012,01,17,21,23,0.00
2012,01,17,21,24,0.00
2012,01,17,21,25,0.00
2012,01,17,21,26,-0.10
2012,01,17,21,27,-0.10
2012,01,17,21,28,-0.10
2012,01,17,21,29,-0.10
2012,01,17,21,30,-0.10
2012,01,17,21,31,-0.10
2012,01,17,21,32,-0.10
2012,01,17,21,33,-0.10
2012,01,17,21,34,-0.10
2012,01,17,21,35,-0.10
2012,01,17,21,36,-0.10
2012,01,17,21,37,-0.10
2012,01,17,21,38,-0.10
2012,01,17,21,39,-0.10
2012,01,17,21,40,-0.10
2012,01,17,21,41,-0.40
2012,01,17,21,42,-0.40
2012,01,17,21,43,-0.40
2012,01,17,21,44,-0.40
2012,01,17,21,45,-0.40
2012,01,17,21,46,-0.40
2012,01,17,21,47,-0.40
2012,01,17,21,48,-0.40
2012,01,17,21,49,-0.40
2012,01,17,21,50,-0.40
2012,01,17,21,51,-0.40
2012,01,17,21,52,-0.40
2012,01,17,21,53,-0.40
2012,01,17,21,54,-0.40
2012,01,17,21,55,-0.40
2012,01,17,21,56,-0.40
2012,01,17,21,57,-0.40
2012,01,17,21,58,-0.40
2012,01,17,21,59,-0.40
2012,01,17,22,00,-0.40
2012,01,17,22,01,-0.40
2012,01,17,22,02,-0.40
2012,01,17,22,03,-0.40
2012,01,17,22,04,-0.40
2012,01,17,22,05,-0.40
2012,01,17,22,06,-0.40
2012,01,17,22,07,-0.40
2012,01,17,22,08,-0.40
2012,01,17,22,09,-0.40
2012,01,17,22,10,-0.40
2012,01,17,22,11,-0.30
2012,01,17,22,12,-0.30
2012,01,17,22,13,-0.30
2012,01,17,22,14,-0.30
2012,01,17,22,15,-0.30
2012,01,17,22,16,-0.30
2012,01,17,22,17,-0.30
2012,01,17,22,18,-0.30
2012,01,17,22,19,-0.30
2012,01,17,22,20,-0.30
2012,01,17,22,21,-0.30
2012,01,17,22,22,-0.30
2012,01,17,22,23,-0.30
2012,01,17,22,24,-0.30
2012,01,17,22,25,-0.30
2012,01,17,22,26,-0.60
2012,01,17,22,27,-0.60
2012,01,17,22,28,-0.60
2012,01,17,22,29,-0.60
2012,01,17,22,30,-0.60
2012,01,17,22,31,-0.60
2012,01,17,22,32,-0.60
2012,01,17,22,33,-0.60
2012,01,17,22,34,-0.60
2012,01,17,22,35,-0.60
2012,01,17,22,36,-0.60
2012,01,17,22,37,-0.60
2012,01,17,22,38,-0.60
2012,01,17,22,39,-0.60
2012,01,17,22,40,-0.60
2012,01,17,22,41,-0.40
2012,01,17,22,42,-0.40
2012,01,17,22,43,-0.40
2012,01,17,22,44,-0.40
2012,01,17,22,45,-0.40
2012,01,17,22,46,-0.40
2012,01,17,22,47,-0.40
2012,01,17,22,48,-0.40
2012,01,17,22,49,-0.40
2012,01,17,22,50,-0.40
2012,01,17,22,51,-0.40
2012,01,17,22,52,-0.40
2012,01,17,22,53,-0.40
2012,01,17,22,54,-0.40
2012,01,17,22,55,-0.40
2012,01,17,22,56,-0.20
2012,01,17,22,57,-0.20
2012,01,17,22,58,-0.20
2012,01,17,22,59,-0.20
2012,01,17,23,00,-0.20
2012,01,17,23,01,-0.20
2012,01,17,23,02,-0.20
2012,01,17,23,03,-0.20
2012,01,17,23,04,-0.20
2012,01,17,23,05,-0.20
2012,01,17,23,06,-0.20
2012,01,17,23,07,-0.20
2012,01,17,23,08,-0.20
2012,01,17,23,09,-0.20
2012,01,17,23,10,-0.20
2012,01,17,23,11,-0.30
2012,01,17,23,12,-0.30
2012,01,17,23,13,-0.30
2012,01,17,23,14,-0.30
2012,01,17,23,15,-0.30
2012,01,17,23,16,-0.30
2012,01,17,23,17,-0.30
2012,01,17,23,18,-0.30
2012,01,17,23,19,-0.30
2012,01,17,23,20,-0.30
2012,01,17,23,21,-0.30
2012,01,17,23,22,-0.30
2012,01,17,23,23,-0.30
2012,01,17,23,24,-0.30
2012,01,17,23,25,-0.30
2012,01,17,23,26,-0.20
2012,01,17,23,27,-0.20
2012,01,17,23,28,-0.20
2012,01,17,23,29,-0.20
2012,01,17,23,30,-0.20
2012,01,17,23,31,-0.20
2012,01,17,23,32,-0.20
2012,01,17,23,33,-0.20
2012,01,17,23,34,-0.20
2012,01,17,23,35,-0.20
2012,01,17,23,36,-0.20
2012,01,17,23,37,-0.20
2012,01,17,23,38,-0.20
2012,01,17,23,39,-0.20
2012,01,17,23,40,-0.20
2012,01,17,23,41,-0.10
2012,01,17,23,42,-0.10
2012,01,17,23,43,-0.10
2012,01,17,23,44,-0.10
2012,01,17,23,45,-0.10
2012,01,17,23,46,-0.10
2012,01,17,23,47,-0.10
2012,01,17,23,48,-0.10
2012,01,17,23,49,-0.10
2012,01,17,23,50,-0.10
2012,01,17,23,51,-0.10
2012,01,17,23,52,-0.10
2012,01,17,23,53,-0.10
2012,01,17,23,54,-0.10
2012,01,17,23,55,-0.10
2012,01,17,23,56,-0.10
2012,01,17,23,57,-0.10
2012,01,17,23,58,-0.10
2012,01,17,23,59,-0.10
